Regional Weather Roundup
Issued by NWS Northern Indiana

Home | Current Version | Previous Version | Text Only | Print | Product List | Glossary Off
Versions: 1 2 3 4 5 6 7 8 9 10 11 12 13 14 15 16 17 18 19 20 21 22 23 24 25 26 27 28 29 30 31 32 33 34 35 36 37 38 39 40 41 42 43 44 45 46 47 48 49 50

000
ASUS43 KIWX 280810
RWRIWX

KIWX WEATHER ROUNDUP
NATIONAL WEATHER SERVICE NORTHERN INDIANA
400 AM EDT FRI APR 28 2017

NOTE: "FAIR" INDICATES FEW OR NO CLOUDS BELOW 12,000 FEET WITH NO
SIGNIFICANT WEATHER AND/OR OBSTRUCTIONS TO VISIBILITY.

* THESE STATIONS ARE NOT UNDER NWS QUALITY CONTROL. THEY ALSO MAY NOT
  REPORT WEATHER SUCH AS PRECIPITATION OR FOG.

INZ001>027-280900-
NORTHERN INDIANA

CITY           SKY/WX    TMP DP  RH WIND       PRES   REMARKS
GARY*          CLEAR     41  40  97 CALM      29.89R FOG
VALPARAISO     PTCLDY    46  42  86 S6        29.89S
MICHIGAN CITY* PTCLDY    37  37 100 CALM      29.90R
LAPORTE*       PTCLDY    43  41  91 S5        29.90S
KNOX*          PTCLDY    43  30  61 S7        29.90S
SOUTH BEND     PTCLDY    42  38  85 SW6       29.90S
GOSHEN         PTCLDY    44  38  79 S8        29.90S
MONTICELLO*    PTCLDY    46  39  78 S5        29.91S
LOGANSPORT*    CLOUDY    41  37  87 S6        29.93S
ROCHESTER*     CLOUDY    46  41  81 S6        29.92S
WARSAW*        PTCLDY    45  37  76 CALM      29.92S
ANGOLA*        CLEAR     43  37  81 SW5       29.90S
FORT WAYNE     MOCLDY    45  39  79 SW6       29.93S
HUNTINGTON*    CLOUDY    45  40  82 SW3       29.93S
PERU/GRISSOM   PTCLDY    43  43  99 S7        29.92S
MARION*        CLOUDY    45  41  87 S5        29.95S FOG

$$
INZ028>050-280900-
CENTRAL INDIANA

CITY           SKY/WX    TMP DP  RH WIND       PRES   REMARKS
LAFAYETTE      CLOUDY    44  42  93 SE3       29.91F
KOKOMO*        CLOUDY    45  42  89 S6        29.94S
MUNCIE*        PTCLDY    44  41  89 S3        29.94F
INDIANAPOLIS   CLOUDY    48  43  82 E7        29.92F

$$
MIZ043>046-050>051-056>058-064>065-071>073-077>080-280900-
SOUTHWEST LOWER MICHIGAN

CITY           SKY/WX    TMP DP  RH WIND       PRES   REMARKS
BATTLE CREEK   MOCLDY    44  36  73 W9        29.90R
BENTON HARBOR  CLOUDY    44  37  76 SW6       29.89R
COLDWATER*     CLEAR     43  37  79 CALM      29.90R
HILLSDALE*     CLEAR     43  36  75 SW5       29.89S
HOLLAND        CLOUDY    45  36  70 SW14      29.88R
GRAND RAPIDS   CLOUDY    45  36  70 W17       29.86R
KALAMAZOO      MOCLDY    41  34  76 SW3       29.90R
STURGIS*       CLOUDY    41  37  84 SW3       29.89S
THREE RIVERS*  FAIR      43  37  78 SW3       29.90S

$$
OHZ001>008-015>018-024>025-280900-
NORTHWEST OHIO

CITY           SKY/WX    TMP DP  RH WIND       PRES   REMARKS
WAUSEON*       FAIR      46  39  76 SW8       29.92R
DEFIANCE       CLOUDY    45  37  73 W3        29.93R
FINDLAY        CLEAR     45  40  82 W8        29.94R
TOLEDO EXPRESS PTCLDY    47  38  71 W10       29.92R
TOLEDO METCALF PTCLDY    48  40  73 W13       29.93R
LIMA           CLEAR     46  42  86 W7        29.95R

$$
AND FOR LAKE MICHIGAN COASTAL AND OPEN LAKE BUOY OBSERVATIONS

STATION/POSITION TEMP    WIND        PRES    VSBY  WAVE
                 AIR SEA DIR/SP/G                  HT/PER
                 (F)     (DEG/KT/KT) (MB)    (MI)  (FT/S)
CALUMET HARBOR    43     240/  2/  4 1011.5R
MICHIGAN CITY     44     180/  2/  3   N/A
BURNS HARBOR      45     190/  7/  9 1012.5F
SOUTH LAKE BUOY   43 41  260/ 12/ 16 1011.4          3/ 4
4 MI NW BRIDGMAN  45 48  240/  4/  4 1013.1          2/ 4
MICHIGAN CITY     45 47                N/A           1/ 3

$$
&&




USA.gov is the U.S. government's official web portal to all federal, state and local government web resources and services.